Wind_Speed
10 9 9 9 8 8 7 6 6 6 7 7 7 6 6 6 6 5 5 5 5 5 6 6 7 8 9 10 11 11 12 13 13 14 15 16 16 17 17 17 18 19 19
11 11 10 9 9 8 7 7 7 7 7 6 6 6 6 6 5 5 5 5 6 6 6 7 8 8 9 10 11 11 12 13 14 14 15 16 16 16 17 17 18 18 18
13 12 11 11 10 9 9 8 7 7 7 7 7 6 6 6 6 6 6 6 6 7 7 8 8 9 10 10 11 12 12 13 14 15 15 15 16 16 16 17 18 18 18
14 13 12 12 11 10 10 9 8 8 7 7 7 7 7 7 6 7 7 7 7 8 8 8 9 10 10 11 11 12 13 14 14 15 15 15 16 16 17 17 17 18 18
15 14 13 13 12 11 11 11 10 9 9 9 8 8 8 7 7 7 7 7 8 8 8 9 10 10 10 11 12 13 13 14 15 15 15 16 16 16 17 17 18 18 19
16 15 15 14 13 12 12 12 11 11 10 10 9 9 9 8 8 8 8 8 8 8 9 9 10 11 11 12 12 13 14 14 14 15 16 16 17 17 18 18 18 19 20
17 17 16 16 15 14 14 13 13 12 11 11 11 10 10 9 9 9 9 9 9 9 9 10 11 11 12 12 13 13 14 14 15 15 16 17 17 18 18 18 19 20 20
19 18 18 18 17 16 15 15 14 13 13 12 12 12 11 11 11 10 10 10 10 10 10 11 12 12 12 13 13 14 14 15 15 16 16 17 18 18 18 19 19 20 20
20 20 19 19 18 17 17 16 16 15 14 14 13 13 13 13 12 12 12 11 11 12 12 12 12 13 13 13 14 14 15 15 16 17 17 18 18 18 19 20 20 21 21
21 21 21 20 20 19 18 18 17 16 16 15 15 14 14 14 14 14 13 13 13 13 13 14 14 14 14 14 15 15 16 16 17 17 18 19 19 20 20 21 21 22 22
23 22 22 22 21 20 20 19 18 18 18 17 17 16 16 15 15 15 15 15 15 15 15 15 15 16 16 16 16 17 17 17 18 18 19 20 21 21 22 22 22 22 23
24 24 23 23 22 22 21 20 20 20 19 19 18 17 17 17 17 17 17 17 17 16 16 17 16 17 17 17 17 18 18 19 19 20 20 21 22 22 23 23 23 23 23
26 25 25 24 24 23 23 22 21 21 21 20 19 19 18 18 18 18 18 19 18 18 18 18 18 18 18 18 19 19 20 20 21 21 22 23 23 23 24 24 24 24 24
28 27 27 26 26 25 24 24 23 23 22 22 21 21 20 20 20 20 20 20 20 20 20 20 19 19 20 20 20 21 21 22 22 23 23 24 24 25 25 25 25 25 25
30 29 28 28 27 27 26 25 25 24 24 24 23 23 22 22 22 22 22 22 22 22 22 21 21 21 21 21 22 23 23 24 24 25 25 26 26 26 26 27 27 27 27
31 31 30 30 29 28 28 27 27 26 25 25 25 25 25 24 24 24 24 24 24 24 23 23 23 23 23 23 24 24 25 26 26 26 27 27 27 28 28 28 28 28 28
34 33 32 31 31 30 29 29 28 28 27 26 27 27 26 26 26 26 26 25 25 25 25 25 25 25 24 25 25 26 26 27 27 28 28 29 29 29 30 30 30 30 30
36 35 34 33 32 32 31 31 30 29 29 28 28 28 28 28 28 28 27 27 27 27 27 27 26 26 26 27 27 27 28 28 28 29 30 30 30 30 31 31 31 32 32
37 37 36 35 34 34 33 32 31 31 31 31 30 30 30 30 30 29 29 29 29 29 28 28 28 28 28 28 28 28 29 29 30 30 31 31 32 32 32 33 33 33 34
39 39 38 37 36 36 35 34 33 33 33 33 32 32 32 32 31 31 30 30 30 30 30 30 29 29 29 30 30 30 30 31 31 32 32 33 33 34 34 34 34 35 36
42 41 40 39 39 38 37 36 35 35 35 35 34 34 34 33 33 32 32 32 32 32 31 31 31 31 31 31 31 32 32 32 32 33 34 34 35 35 35 36 36 37 38
43 43 42 42 41 40 39 38 37 37 37 36 35 35 35 35 34 33 33 33 33 33 33 33 33 33 32 33 33 33 33 33 34 34 35 35 36 36 37 37 38 39 40
45 45 44 43 43 42 42 41 40 39 38 37 37 37 37 37 36 36 35 35 34 34 34 34 34 34 34 34 34 35 34 34 35 35 36 36 37 37 38 39 40 41 42
46 46 46 45 44 44 43 43 42 41 40 39 39 39 39 39 38 38 37 37 36 36 35 35 35 36 36 36 36 36 36 36 36 36 37 37 38 39 39 40 41 42 43
46 47 47 46 46 45 45 44 43 42 42 42 42 41 41 40 40 40 39 39 38 38 38 38 37 38 38 38 37 37 37 38 38 38 38 38 39 40 41 41 42 43 44
46 47 47 47 47 47 46 46 45 44 44 44 44 43 43 42 42 42 41 41 40 40 40 40 39 39 39 39 39 39 39 39 39 39 39 39 40 41 41 42 43 44 44
Wind_Direction
248 251 249 247 248 246 243 243 243 245 248 250 249 247 244 242 245 251 259 270 279 286 294 298 301 305 306 306 307 308 309 309 309 310 309 309 309 310 310 309 308 307 305
249 251 251 247 246 244 241 238 240 243 247 249 247 244 242 243 247 255 265 274 282 289 294 298 302 305 308 310 311 311 311 311 312 311 311 311 311 311 311 311 310 308 306
247 248 247 245 244 241 240 239 240 244 247 248 248 247 245 248 254 258 266 275 282 289 295 300 303 304 306 308 310 311 312 313 313 312 312 312 312 312 313 313 312 311 309
245 246 245 243 241 242 241 240 239 242 247 248 249 250 250 253 258 262 268 275 282 288 295 299 302 303 305 307 309 310 312 313 313 314 314 313 313 313 313 313 312 312 311
244 243 242 240 239 241 242 242 241 244 247 250 251 250 251 254 260 267 270 275 281 286 292 297 300 302 304 306 308 310 311 312 313 313 314 314 314 313 313 312 312 312 311
242 242 241 239 239 240 242 244 245 247 248 250 250 249 250 253 261 268 271 276 281 287 293 298 301 302 302 305 308 310 311 312 312 313 314 314 313 313 313 313 312 312 312
241 241 241 239 239 242 243 244 246 248 248 248 248 250 251 254 260 266 271 275 280 286 292 296 300 301 302 305 308 310 310 311 311 313 314 314 313 312 312 312 312 312 311
242 242 242 240 241 244 246 245 246 246 245 245 248 252 254 257 261 264 268 273 278 284 290 294 298 300 303 305 307 308 309 309 309 311 313 313 313 312 312 312 312 311 311
242 242 242 242 242 244 245 245 246 246 246 247 249 252 254 258 261 262 266 272 277 282 287 292 295 298 301 303 304 306 307 307 309 311 312 313 312 312 312 312 312 311 311
243 243 243 243 242 243 244 246 246 247 247 248 250 252 254 258 259 261 265 270 276 280 284 288 290 294 297 299 301 303 304 304 306 308 310 311 310 310 310 310 310 310 309
243 244 244 244 244 244 244 245 246 247 248 250 252 254 256 258 259 261 264 269 274 278 282 285 287 290 293 295 298 300 300 301 302 305 307 308 308 307 307 308 308 307 308
243 243 244 244 244 245 244 245 246 248 250 251 253 254 256 259 260 261 265 268 272 276 280 283 285 288 290 293 295 298 298 299 300 302 304 305 306 306 306 306 306 306 307
242 243 243 243 244 245 245 245 246 248 250 251 253 255 257 259 261 262 264 268 272 275 278 281 283 285 288 290 293 296 297 298 298 300 302 303 304 304 304 304 304 305 305
243 244 244 244 245 245 245 244 246 248 251 253 254 255 257 259 260 262 264 267 271 275 278 280 282 284 286 289 292 294 295 296 297 298 300 301 302 302 302 302 302 302 303
243 244 244 244 244 244 244 244 246 248 251 253 254 255 257 259 260 262 264 267 271 275 278 280 281 283 285 287 290 293 293 294 295 296 297 298 299 300 299 300 300 300 301
243 243 243 244 244 244 244 245 246 249 252 254 255 255 257 259 261 262 264 267 270 274 276 278 279 281 284 286 289 291 292 292 293 294 295 297 298 298 298 298 298 298 299
243 243 243 243 244 244 245 246 247 250 253 255 256 256 257 260 262 263 265 267 270 273 275 277 278 281 283 285 288 290 291 292 293 294 295 295 296 297 297 297 297 297 297
243 243 242 242 244 245 246 248 249 251 253 255 257 257 258 260 261 262 264 267 269 272 274 276 277 280 282 285 287 289 290 292 293 294 295 295 295 296 297 297 297 296 296
243 242 242 243 244 245 247 249 250 251 253 255 257 258 259 260 261 262 263 266 269 271 273 275 277 279 281 284 286 288 290 291 292 293 294 295 295 296 296 296 296 296 296
243 243 243 243 244 246 248 250 251 252 253 254 256 257 258 260 261 262 264 266 269 270 272 274 276 278 281 283 285 287 288 289 290 292 293 294 294 295 295 295 295 295 296
244 243 243 244 245 246 248 250 251 251 252 253 255 256 257 259 261 263 264 267 268 269 271 274 275 277 279 282 284 286 287 289 290 291 292 293 293 294 295 295 295 295 295
244 243 244 245 246 247 249 251 252 251 252 253 254 257 258 260 261 264 265 267 268 269 271 273 275 276 278 281 283 284 286 288 289 291 292 293 293 294 294 295 295 295 295
243 243 244 245 246 248 250 251 252 253 253 254 255 256 258 260 261 263 265 266 268 269 271 272 274 276 277 280 282 284 285 286 287 290 291 292 293 293 294 294 295 295 295
243 242 243 245 247 248 250 251 252 253 253 254 254 256 258 260 262 263 264 265 267 269 270 271 273 275 278 280 281 283 284 286 287 289 290 291 293 294 294 294 295 295 295
243 243 243 245 247 248 249 250 252 252 252 253 255 256 258 260 262 262 263 264 266 268 269 271 272 274 277 279 281 282 283 285 287 289 290 291 292 293 294 295 295 295 296
243 243 244 244 246 247 248 250 251 252 252 253 255 256 258 260 261 262 262 264 266 267 268 270 271 274 276 278 280 281 283 285 287 288 289 291 292 293 294 295 295 296 296
Height
5871 5871 5871 5871 5871 5871 5871 5870 5870 5870 5870 5870 5870 5870 5869 5869 5869 5868 5868 5867 5867 5866 5865 5864 5863 5863 5862 5861 5860 5859 5857 5856 5855 5854 5852 5851 5849 5847 5846 5844 5843 5841 5840
5869 5869 5869 5869 5869 5869 5869 5869 5869 5869 5869 5869 5869 5869 5868 5868 5867 5867 5867 5866 5865 5864 5863 5863 5862 5861 5860 5859 5858 5857 5855 5854 5853 5851 5850 5848 5846 5845 5843 5842 5840 5838 5837
5866 5867 5867 5867 5867 5867 5867 5867 5867 5868 5868 5867 5867 5867 5867 5866 5866 5866 5865 5864 5864 5863 5862 5861 5860 5859 5858 5857 5856 5854 5853 5852 5850 5849 5847 5845 5844 5842 5840 5839 5837 5835 5834
5864 5864 5864 5865 5865 5865 5865 5865 5866 5866 5866 5866 5866 5865 5865 5865 5864 5864 5863 5863 5862 5861 5860 5859 5858 5857 5856 5855 5854 5852 5851 5849 5848 5846 5845 5843 5841 5839 5838 5836 5834 5832 5831
5861 5861 5862 5862 5863 5863 5863 5863 5864 5864 5864 5864 5863 5863 5863 5863 5862 5862 5861 5861 5860 5859 5858 5857 5856 5855 5854 5853 5851 5850 5848 5847 5845 5844 5842 5840 5838 5836 5835 5833 5831 5829 5827
5857 5858 5859 5859 5860 5860 5860 5861 5861 5861 5861 5861 5861 5861 5861 5861 5860 5860 5859 5858 5858 5857 5856 5855 5854 5853 5851 5850 5849 5847 5846 5844 5842 5841 5839 5837 5835 5834 5832 5830 5828 5826 5824
5854 5855 5856 5856 5857 5857 5858 5858 5858 5858 5859 5859 5859 5859 5858 5858 5858 5857 5857 5856 5855 5854 5854 5853 5851 5850 5849 5847 5846 5845 5843 5841 5840 5838 5836 5834 5832 5830 5829 5826 5824 5822 5820
5850 5851 5852 5853 5853 5854 5854 5855 5855 5855 5855 5856 5856 5856 5855 5855 5855 5855 5854 5854 5853 5852 5851 5850 5849 5847 5846 5845 5843 5842 5840 5838 5837 5835 5833 5831 5829 5827 5825 5823 5821 5819 5817
5846 5847 5848 5849 5849 5850 5851 5851 5852 5852 5852 5852 5852 5852 5852 5852 5852 5852 5851 5851 5850 5849 5848 5847 5846 5844 5843 5842 5840 5839 5837 5835 5833 5831 5830 5828 5826 5824 5822 5820 5817 5815 5813
5841 5842 5843 5844 5845 5846 5847 5847 5848 5848 5849 5849 5849 5849 5849 5849 5849 5848 5848 5848 5847 5846 5845 5844 5843 5841 5840 5839 5837 5836 5834 5832 5830 5828 5826 5824 5822 5820 5818 5816 5814 5811 5809
5836 5838 5839 5840 5841 5842 5842 5843 5844 5844 5845 5845 5845 5845 5845 5845 5845 5845 5845 5844 5843 5842 5841 5840 5839 5838 5837 5835 5834 5832 5830 5828 5827 5825 5823 5821 5818 5816 5814 5812 5809 5807 5805
5831 5832 5834 5835 5836 5837 5838 5839 5839 5840 5841 5841 5841 5841 5841 5841 5841 5841 5841 5840 5839 5839 5837 5836 5835 5834 5833 5831 5830 5828 5827 5825 5823 5821 5819 5817 5815 5812 5810 5808 5805 5803 5800
5825 5827 5828 5829 5831 5832 5833 5834 5835 5836 5836 5837 5837 5837 5837 5837 5837 5837 5836 5836 5835 5834 5833 5832 5831 5830 5829 5827 5826 5824 5822 5821 5819 5817 5815 5812 5810 5808 5805 5803 5801 5798 5796
5819 5820 5822 5823 5825 5826 5828 5829 5830 5831 5831 5832 5832 5832 5832 5832 5832 5832 5832 5831 5831 5830 5829 5828 5827 5825 5824 5823 5821 5820 5818 5816 5814 5812 5810 5808 5805 5803 5801 5798 5796 5793 5791
5812 5814 5816 5817 5819 5820 5822 5823 5824 5825 5826 5826 5827 5827 5827 5827 5827 5827 5827 5826 5826 5825 5824 5823 5822 5821 5819 5818 5817 5815 5813 5811 5809 5807 5805 5803 5800 5798 5795 5793 5791 5788 5786
5804 5806 5808 5810 5812 5814 5816 5817 5818 5819 5820 5821 5821 5822 5822 5822 5822 5822 5821 5821 5820 5820 5819 5818 5817 5816 5814 5813 5811 5810 5808 5806 5804 5802 5800 5797 5795 5792 5790 5788 5785 5783 5780
5796 5798 5801 5803 5805 5807 5809 5810 5812 5813 5814 5815 5815 5816 5816 5816 5816 5816 5816 5815 5815 5814 5813 5813 5812 5810 5809 5808 5806 5804 5802 5800 5798 5796 5794 5791 5789 5787 5784 5782 5779 5776 5774
5788 5791 5793 5795 5798 5800 5802 5803 5805 5806 5807 5808 5809 5809 5809 5809 5810 5809 5809 5809 5809 5808 5807 5807 5806 5805 5803 5802 5800 5798 5796 5794 5792 5790 5788 5785 5783 5780 5778 5775 5773 5770 5767
5780 5783 5785 5788 5790 5793 5794 5796 5798 5799 5800 5801 5802 5802 5803 5803 5803 5803 5803 5803 5802 5802 5801 5800 5799 5798 5797 5795 5794 5792 5790 5788 5786 5784 5781 5779 5776 5774 5771 5768 5766 5763 5760
5771 5774 5777 5780 5782 5784 5786 5788 5790 5791 5792 5793 5794 5795 5795 5796 5796 5796 5796 5796 5795 5795 5794 5793 5792 5791 5790 5789 5787 5785 5783 5781 5779 5777 5774 5772 5769 5766 5764 5761 5758 5755 5753
5762 5765 5769 5771 5774 5776 5778 5780 5782 5783 5784 5785 5786 5787 5787 5788 5788 5789 5789 5788 5788 5787 5787 5786 5785 5784 5783 5781 5780 5778 5776 5774 5772 5769 5767 5764 5762 5759 5756 5753 5750 5748 5745
5753 5756 5759 5762 5765 5767 5770 5771 5773 5774 5775 5777 5778 5779 5779 5780 5780 5781 5781 5781 5780 5780 5779 5779 5778 5777 5775 5774 5772 5770 5768 5767 5764 5762 5759 5756 5754 5751 5748 5745 5742 5739 5736
5743 5746 5749 5753 5755 5758 5760 5761 5764 5765 5767 5768 5770 5770 5771 5771 5772 5772 5772 5772 5772 5772 5771 5771 5770 5769 5768 5766 5764 5762 5761 5759 5756 5754 5751 5748 5745 5743 5740 5737 5734 5730 5727
5732 5736 5739 5742 5745 5748 5750 5752 5754 5756 5758 5760 5760 5761 5762 5762 5763 5763 5763 5763 5763 5763 5763 5762 5761 5760 5759 5758 5756 5754 5752 5750 5748 5746 5744 5740 5737 5734 5731 5728 5725 5721 5718
5721 5725 5728 5732 5735 5738 5740 5742 5744 5746 5748 5749 5750 5752 5752 5753 5753 5754 5754 5754 5754 5754 5754 5753 5752 5751 5750 5749 5747 5745 5743 5741 5739 5737 5735 5732 5729 5726 5722 5719 5715 5712 5708
5710 5714 5717 5720 5724 5727 5730 5732 5735 5737 5738 5739 5740 5742 5742 5743 5744 5744 5744 5744 5744 5744 5744 5744 5743 5742 5741 5740 5738 5736 5734 5732 5730 5727 5725 5723 5720 5717 5713 5709 5706 5702 5698